Regional Weather Roundup
Issued by NWS

Home | Current Version | Previous Version | Graphics & Text | Print | Product List | Glossary On
Versions: 1 2 3 4 5 6 7 8 9 10 11 12 13 14 15 16 17 18 19 20 21 22 23 24 25 26 27 28 29 30 31 32 33 34 35 36 37 38 39 40 41 42 43 44 45 46 47 48 49 50
000
ASUS43 KIND 241609
RWRIN

WEATHER ROUNDUP FOR INDIANA
NATIONAL WEATHER SERVICE INDIANAPOLIS IN
1200 PM EDT SAT JUN 24 2017

NOTE: "FAIR" INDICATES FEW OR NO CLOUDS BELOW 12,000 FEET WITH NO
SIGNIFICANT WEATHER AND/OR OBSTRUCTIONS TO VISIBILITY.

* - STATION DOES NOT REPORT WEATHER SUCH AS PRECIPITATION OR FOG.

+ - STATION NOT QUALITY CONTROLLED BY THE NATIONAL WEATHER SERVICE.
    USE DATA WITH CAUTION...ESPECIALLY DEWPOINT AND RELATIVE
    HUMIDITY OBSERVATIONS.

INZ001>003-010>013-019-020-241700-
NORTHWEST INDIANA

CITY           SKY/WX    TMP DP  RH WIND       PRES   REMARKS
GARY /AIRPORT/ MOSUNNY   72  52  49 W12G23    29.97R
KNOX *+        MOSUNNY   70  46  43 W10       29.97R
LA PORTE +     SUNNY     70  55  59 NW8       29.97S
MICHIGAN CITY+ CLOUDY    70  54  56 NW9       29.98R
MONTICELLO +   MOSUNNY   71  58  62 W12G18    29.98R
VALPARAISO     MOSUNNY   73  56  54 W13       29.97R

$$

LMZ046-743>745-241700-
SOUTHERN LAKE MICHIGAN

STATION/POSITION TIME  TEMP    WIND        PRES    WAVE
                       AIR SEA DIR/SP/G            HT
                 (UTC) (F)     (DEG/KT/KT) (MB)    (FT)
BURNS HARBOR     1530   66     300/  7/  9 1014.9S
MICHIGAN CITY    1540   65     260/  9/ 10   N/A
5NW MICH CITY    1600   66 68  290/ 10/ 12   N/A     2

$$

INZ004-005-014>016-021>024-241700-
NORTH CENTRAL INDIANA

CITY           SKY/WX    TMP DP  RH WIND       PRES   REMARKS
ELKHART        MOSUNNY   70  55  60 W15       29.95R
GOSHEN         PTSUNNY   69  55  60 W14G23    29.94R
LOGANSPORT +   MOSUNNY   70  57  64 W12G21    29.99R
PERU/GRISSOM   MOSUNNY   72  61  67 W18       29.97R
ROCHESTER +    MOSUNNY   73  55  53 W10G20    29.97R
SOUTH BEND     MOSUNNY   70  56  61 NW13      29.96R
WARSAW +       MOSUNNY   70  55  60 W12G17    29.95R

$$

INZ006>009-017-018-025>027-241700-
NORTHEAST INDIANA

CITY           SKY/WX    TMP DP  RH WIND       PRES   REMARKS
AUBURN +       MOSUNNY   72  54  53 W10       29.95R
FORT WAYNE     MOSUNNY   73  56  54 W15       29.95R
HUNTINGTON +   MOSUNNY   71  56  57 W13G18    29.96R
KENDALLVILLE + PTSUNNY   72  54  53 W16       29.94R

$$

INZ028-029-035-036-043>045-051>053-241700-
WEST CENTRAL INDIANA

CITY           SKY/WX    TMP DP  RH WIND       PRES   REMARKS
CRAWFORDSVL +  PTSUNNY   69  60  73 W12       30.02R
GREENCASTLE +  MOSUNNY   72  55  56 SW3       30.03R
LAFAYETTE      PTSUNNY   71  60  68 W13       29.99R
TERRE HAUTE    MOSUNNY   74  57  55 W14       30.03R

$$

INZ030>032-037>040-046>048-054>057-064-065-241700-
CENTRAL INDIANA

CITY           SKY/WX    TMP DP  RH WIND       PRES   REMARKS
ANDERSON         N/A     73  61  64 MISG        N/A
CP ATTERBURY + MOSUNNY   72  55  56 CALM      30.02R
COLUMBUS       MOSUNNY   72  57  60 W6        30.01S
FRANKFORT +    PTSUNNY   74  62  64 W14       30.02R
GREENWOOD *+   MOSUNNY   72  56  57 W12       30.01R
INDIANAPOLIS   MOSUNNY   73  57  57 W13G20    30.00R
-EAGLE CREEK   MOSUNNY   74  56  53 W9G16     30.00R
KOKOMO +       PTSUNNY   72  60  66 W14       29.99R
MARION +       MOSUNNY   72  57  60 W12       29.99R
MT COMFORT *+  SUNNY     72  57  60 W10       30.00R
SHELBYVILLE    MOSUNNY   74  57  55 W13       29.99S
ZIONSVILLE +   MOSUNNY   70  58  66 W13G20    30.01R

$$

INZ033-034-041-042-049-050-058-059-241700-
EAST CENTRAL INDIANA

CITY           SKY/WX    TMP DP  RH WIND       PRES   REMARKS
MUNCIE         MOSUNNY   73  57  57 W9        29.98R
RICHMOND +     MOSUNNY   68  57  68 W8        30.00R

$$

INZ060-061-067>069-081>083-085>088-241700-
SOUTHWEST INDIANA

CITY           SKY/WX    TMP DP  RH WIND       PRES   REMARKS
EVANSVILLE     SUNNY     76  57  51 N12       30.07R
WASHINGTON +   SUNNY     73  57  58 W6        30.05R

$$

INZ062-063-066-070>080-084-089>092-241700-
SOUTH CENTRAL AND SOUTHEAST INDIANA

CITY           SKY/WX    TMP DP  RH WIND       PRES   REMARKS
BEDFORD +      MOSUNNY   73  57  56 SW8       30.03R
BLOOMINGTON    MOSUNNY   73  58  59 W12       30.03S
MADISON *+     SUNNY     73  55  53 W8        30.04S
NORTH VERNON + MOSUNNY   70  59  68 W9        30.03R
SEYMOUR +      MOSUNNY   75  59  57 W14G20    30.02S

$$





USA.gov is the U.S. government's official web portal to all federal, state and local government web resources and services.